| time (UTC) | temp F | wind direction | speed knots | gust knots | rain 1hr in | rain 24hr in | rain mn in | humidity % | barometer mb |
| 20260506103003 | 71 | 54 | 0.0 | 0.9 | 0.00 | 0.00 | 0.00 | 47 | 1009.0 |
| 20260506101503 | 71 | 126 | 3.5 | 5.2 | 0.00 | 0.00 | 0.00 | 48 | 1010.0 |
| 20260506100002 | 70 | 17 | 0.9 | 1.7 | 0.00 | 0.00 | 0.00 | 48 | 1010.0 |
| 20260506094502 | 70 | 270 | 0.9 | 1.7 | 0.00 | 0.00 | 0.00 | 47 | 1010.0 |
| 20260506093002 | 69 | 257 | 0.9 | 3.5 | 0.00 | 0.00 | 0.00 | 51 | 1010.0 |
| 20260506091502 | 69 | 103 | 1.7 | 6.1 | 0.00 | 0.00 | 0.00 | 53 | 1010.0 |
| 20260506090001 | 67 | 265 | 1.7 | 5.2 | 0.00 | 0.00 | 0.00 | 55 | 1010.0 |
| 20260506084502 | 67 | 286 | 2.6 | 2.6 | 0.00 | 0.00 | 0.00 | 55 | 1010.0 |
| 20260506083003 | 67 | 230 | 2.6 | 3.5 | 0.00 | 0.00 | 0.00 | 56 | 1010.0 |
| 20260506081502 | 66 | 231 | 1.7 | 2.6 | 0.00 | 0.00 | 0.00 | 58 | 1010.0 |
| 20260506073002 | 65 | 226 | 1.7 | 3.5 | 0.00 | 0.00 | 0.00 | 63 | 1010.0 |
| 20260506071502 | 63 | 205 | 1.7 | 3.5 | 0.00 | 0.00 | 0.00 | 67 | 1010.0 |
| 20260506061502 | 58 | 221 | 0.9 | 1.7 | 0.00 | 0.00 | 0.00 | 82 | 1010.0 |
| 20260506044501 | 51 | 205 | 0.0 | 0.9 | 0.00 | 0.00 | 0.00 | 98 | 1010.0 |
| 20260506043002 | 50 | 209 | 0.0 | 0.0 | 0.00 | 0.00 | 0.00 | 99 | 1010.0 |
| 20260506041502 | 48 | 209 | 0.0 | 0.0 | 0.00 | 0.00 | 0.00 | 99 | 1010.0 |
| 20260506040003 | 48 | 212 | 0.0 | 0.0 | 0.00 | 0.00 | 0.00 | 99 | 1010.0 |
| 20260506034503 | 49 | 212 | 0.0 | 0.0 | 0.00 | 0.00 | 0.00 | 99 | 1010.0 |
| 20260506033003 | 49 | 212 | 0.0 | 0.0 | 0.00 | 0.00 | 0.00 | 98 | 1010.0 |
| 20260506031502 | 50 | 212 | 0.0 | 0.0 | 0.00 | 0.00 | 0.00 | 98 | 1009.0 |
| 20260506030002 | 50 | 212 | 0.0 | 0.0 | 0.00 | 0.00 | 0.00 | 98 | 1010.0 |
| 20260506024502 | 51 | 212 | 0.0 | 0.0 | 0.00 | 0.00 | 0.00 | 98 | 1010.0 |
| 20260506023002 | 52 | 223 | 0.0 | 0.0 | 0.00 | 0.00 | 0.00 | 97 | 1010.0 |
| 20260506021502 | 52 | 223 | 0.0 | 0.0 | 0.00 | 0.00 | 0.00 | 96 | 1010.0 |
| 20260506020002 | 53 | 219 | 0.0 | 0.9 | 0.00 | 0.00 | 0.00 | 96 | 1010.0 |
| 20260506014502 | 53 | 218 | 0.0 | 1.7 | 0.00 | 0.00 | 0.00 | 96 | 1010.0 |
| 20260506013001 | 53 | 251 | 0.0 | 0.0 | 0.00 | 0.00 | 0.00 | 96 | 1010.0 |
| 20260506011502 | 54 | 252 | 0.0 | 0.0 | 0.00 | 0.00 | 0.00 | 94 | 1010.0 |
| 20260506010002 | 54 | 252 | 0.9 | 0.9 | 0.00 | 0.00 | 0.00 | 94 | 1010.0 |
| 20260506004503 | 55 | 240 | 0.0 | 1.7 | 0.00 | 0.00 | 0.00 | 91 | 1010.0 |
| 20260506003002 | 56 | 279 | 0.9 | 2.6 | 0.00 | 0.00 | 0.00 | 90 | 1010.0 |
| 20260506001502 | 56 | 294 | 1.7 | 1.7 | 0.00 | 0.00 | 0.00 | 88 | 1009.0 |
| 20260506000002 | 57 | 292 | 0.0 | 3.5 | 0.00 | 0.00 | 0.00 | 87 | 1009.0 |
| 20260505234503 | 57 | 276 | 0.9 | 3.5 | 0.00 | 0.00 | 0.00 | 87 | 1009.0 |
| 20260505233002 | 58 | 293 | 2.6 | 5.2 | 0.00 | 0.00 | 0.00 | 84 | 1009.0 |
| 20260505231502 | 58 | 334 | 1.7 | 2.6 | 0.00 | 0.00 | 0.00 | 82 | 1009.0 |
| 20260505230002 | 58 | 292 | 1.7 | 2.6 | 0.00 | 0.00 | 0.00 | 82 | 1009.0 |
| 20260505224502 | 59 | 241 | 3.5 | 6.1 | 0.00 | 0.00 | 0.00 | 79 | 1009.0 |
| 20260505223002 | 60 | 234 | 2.6 | 3.5 | 0.00 | 0.00 | 0.00 | 74 | 1009.0 |
| 20260505221502 | 61 | 256 | 7.0 | 12.2 | 0.00 | 0.00 | 0.00 | 72 | 1009.0 |
| 20260505220002 | 61 | 227 | 1.7 | 7.0 | 0.00 | 0.00 | 0.00 | 71 | 1009.0 |
| 20260505214502 | 62 | 207 | 3.5 | 6.1 | 0.00 | 0.00 | 0.00 | 71 | 1009.0 |
| 20260505213002 | 62 | 305 | 4.3 | 9.6 | 0.00 | 0.00 | 0.00 | 71 | 1008.0 |
| 20260505211502 | 62 | 285 | 3.5 | 5.2 | 0.00 | 0.00 | 0.00 | 73 | 1008.0 |
| 20260505210002 | 61 | 232 | 2.6 | 3.5 | 0.00 | 0.00 | 0.00 | 74 | 1008.0 |
| 20260505204502 | 61 | 248 | 0.9 | 1.7 | 0.00 | 0.00 | 0.00 | 71 | 1008.0 |
| 20260505203002 | 61 | 208 | 0.9 | 0.9 | 0.00 | 0.00 | 0.00 | 66 | 1007.0 |
| 20260505201502 | 60 | 3 | 0.0 | 0.9 | 0.00 | 0.00 | 0.00 | 70 | 1007.0 |
| 20260505200002 | 61 | 3 | 0.0 | 0.9 | 0.00 | 0.00 | 0.00 | 66 | 1006.0 |
| 20260505194502 | 63 | 4 | 0.9 | 0.9 | 0.00 | 0.00 | 0.00 | 65 | 1006.0 |
| 20260505193002 | 64 | 33 | 0.0 | 1.7 | 0.00 | 0.00 | 0.00 | 63 | 1006.0 |
| 20260505191502 | 64 | 38 | 0.9 | 3.5 | 0.00 | 0.00 | 0.00 | 62 | 1006.0 |
| 20260505190003 | 64 | 33 | 1.7 | 3.5 | 0.00 | 0.00 | 0.00 | 61 | 1006.0 |
| 20260505184502 | 65 | 29 | 1.7 | 3.5 | 0.00 | 0.00 | 0.00 | 60 | 1006.0 |
| 20260505183002 | 66 | 96 | 1.7 | 3.5 | 0.00 | 0.00 | 0.00 | 58 | 1006.0 |
| 20260505181502 | 66 | 65 | 1.7 | 3.5 | 0.00 | 0.00 | 0.00 | 58 | 1006.0 |
| 20260505180002 | 67 | 41 | 1.7 | 2.6 | 0.00 | 0.00 | 0.00 | 57 | 1006.0 |
| 20260505174502 | 68 | 29 | 2.6 | 3.5 | 0.00 | 0.00 | 0.00 | 56 | 1006.0 |
| 20260505173002 | 68 | 39 | 1.7 | 5.2 | 0.00 | 0.00 | 0.00 | 54 | 1006.0 |
| 20260505171502 | 69 | 52 | 4.3 | 6.1 | 0.00 | 0.00 | 0.00 | 51 | 1006.0 |
| 20260505170002 | 69 | 31 | 3.5 | 5.2 | 0.00 | 0.00 | 0.00 | 53 | 1007.0 |
| 20260505164502 | 69 | 32 | 2.6 | 2.6 | 0.00 | 0.00 | 0.00 | 53 | 1007.0 |
| 20260505163002 | 69 | 0 | 1.7 | 3.5 | 0.00 | 0.00 | 0.00 | 54 | 1007.0 |
| 20260505161502 | 69 | 31 | 0.0 | 1.7 | 0.00 | 0.00 | 0.00 | 56 | 1007.0 |
| 20260505153002 | 73 | 293 | 3.5 | 5.2 | 0.00 | 0.00 | 0.00 | 47 | 1008.0 |
| 20260505151502 | 74 | 251 | 0.9 | 2.6 | 0.00 | 0.00 | 0.00 | 43 | 1008.0 |
| 20260505124502 | 74 | 113 | 0.0 | 2.6 | 0.00 | 0.00 | 0.00 | 41 | 1008.0 |
| 20260505123002 | 74 | 326 | 0.9 | 0.9 | 0.00 | 0.00 | 0.00 | 41 | 1008.0 |
| 20260505121502 | 75 | 84 | 2.6 | 3.5 | 0.00 | 0.00 | 0.00 | 41 | 1009.0 |
| 20260505120003 | 76 | 60 | 1.7 | 7.0 | 0.00 | 0.00 | 0.00 | 40 | 1009.0 |
| 20260505114502 | 77 | 9 | 0.0 | 2.6 | 0.00 | 0.00 | 0.00 | 39 | 1009.0 |
| 20260505113002 | 78 | 112 | 3.5 | 9.6 | 0.00 | 0.00 | 0.00 | 38 | 1009.0 |
| 20260505111502 | 77 | 38 | 0.0 | 2.6 | 0.00 | 0.00 | 0.00 | 34 | 1009.0 |